www.pogodaiklimat.ru

Погода и климат >> Архив погоды >> Канада >> Нунавут >> Озеро Робертсон


ПОГОДА на Озере Робертсон

  • Прогноз погоды на Озере Робертсон
  • Монитор погоды на Озере Робертсон

АРХИВ ПОГОДЫ на Озере Робертсон

Время (UTC), дата Ветер
(напр.,м/с)
 
Видим.   Явления Облачность Т
(С)
Тd
(С)
f
(%)
Тe
(С)
Тes
(С)
Комфортность P
(гПа)
Po
(гПа)
Тmin
(С)
Tmax
(С)
R
(мм)
R24
(мм)
S
(см)
12 14.04 В 9 н/о н/о -15.3 -16.5 90 -27 -27 1013.5 981.9 -15.3 -6.8
15 14.04 В 11 н/о н/о -15.9 -17.2 90 -29 -29 1013.8 982.1
18 14.04 В 12 н/о н/о -14.7 -15.9 91 -27 -27 1013.9 982.1 -16.7 -11.9
21 14.04 СВ 12 н/о н/о -14.2 -15.3 91 -27 -27 1014.3 982.5
00 15.04 СВ 13 н/о н/о -15.8 -17.1 90 -29 -29 1015.2 983.2 -16.7 -14.2
03 15.04 СВ 13 н/о н/о -18.0 -19.5 88 -32 -32 опасность
обморожения
1016.2 984.1
06 15.04 В 12 н/о н/о -19.7 -21.3 87 -34 -34 опасность
обморожения
1017.1 985.0 -19.7 -11.9 20
09 15.04 СВ 9 н/о н/о -21.4 -23.3 85 -35 -35 опасность
обморожения
1018.1 985.9
12 15.04 СВ 7 н/о н/о -23.5 -25.6 83 -36 -36 опасность
обморожения
1019.3 986.9 -23.5 -11.9
15 15.04 СВ 8 н/о н/о -23.4 -25.5 83 -37 -37 опасность
обморожения
1019.5 987.0
18 15.04 СВ 10 н/о н/о -21.6 -23.5 85 -36 -36 опасность
обморожения
1019.3 986.8 -23.7 -19.7
21 15.04 СВ 9 н/о н/о -19.9 -21.6 86 -33 -33 опасность
обморожения
1019.9 987.4
00 16.04 СВ 10 н/о н/о -20.6 -22.3 86 -34 -34 опасность
обморожения
1020.2 987.6 -23.7 -19.9
03 16.04 СВ 8 н/о н/о -23.0 -25.0 84 -36 -36 опасность
обморожения
1020.8 988.1
06 16.04 СВ 5 н/о н/о -24.8 -27.0 82 -36 -36 опасность
обморожения
1021.4 988.7 -24.8 -19.7 7
09 16.04 В 5 н/о н/о -25.3 -27.6 81 -36 -36 опасность
обморожения
1021.4 988.7
12 16.04 СВ 7 н/о н/о -25.1 -27.4 81 -38 -38 опасность
обморожения
1020.9 988.2 -25.8 -19.7
15 16.04 СВ 9 н/о н/о -23.0 -25.0 84 -37 -37 опасность
обморожения
1020.2 987.5
18 16.04 В 9 н/о н/о -19.0 -20.7 86 -32 -32 опасность
обморожения
1019.8 987.2 -25.8 -19.0
21 16.04 В 8 н/о н/о -15.8 -17.1 90 -27 -27 1018.7 986.3
00 17.04 В 7 н/о н/о -14.2 -15.4 91 -24 -24 1018.3 985.9 -25.8 -14.2
03 17.04 В 6 н/о н/о -14.6 -15.8 91 -24 -24 1017.6 985.3
06 17.04 В 5 н/о н/о -15.0 -16.2 91 -24 -24 1016.3 984.2 -25.8 -14.2 20
09 17.04 В 3 н/о н/о -14.9 -16.1 91 -22 -22 1015.6 983.6
12 17.04 В 4 н/о н/о -15.1 -16.3 91 -23 -23 1014.8 982.9 -15.1 -14.2
15 17.04 СВ 4 н/о н/о -14.5 -15.7 91 -22 -22 1014.3 982.4
18 17.04 В 4 н/о н/о -13.2 -14.2 92 -20 -20 1014.1 982.3 -19.0 -13.2
21 17.04 СВ 4 н/о н/о -12.9 -13.8 93 -20 -20 1014.9 983.1
00 18.04 СВ 5 н/о н/о -13.5 -14.5 92 -22 -22 1015.9 984.0 -15.1 -12.8
03 18.04 СВ 3 н/о н/о -15.6 -16.7 91 -22 -22 1016.7 984.7
06 18.04 СВ 4 н/о н/о -16.0 -17.3 90 -24 -24 1017.6 985.6 -16.2 -12.8
09 18.04 СВ 2 н/о н/о -16.1 -17.4 90 -21 -21 1018.5 986.5
12 18.04 С 2 н/о н/о -17.2 -18.5 90 -23 -23 1018.9 986.8 -17.2 -12.8
15 18.04 СВ 2 н/о н/о -19.1 -20.7 87 -25 -25 1018.8 986.6
18 18.04 штиль 0 н/о н/о -16.2 -17.7 88 -16 -16 1018.4 986.3 -19.9 -16.0
21 18.04 ЮВ 1 н/о н/о -14.1 -15.2 91 -14 -14 1017.4 985.4
00 19.04 В 1 н/о н/о -13.6 -14.6 92 -16 -16 1016.4 984.4 -19.9 -13.1
03 19.04 ЮВ 2 н/о н/о -14.8 -15.9 91 -19 -19 1015.1 983.0
06 19.04 З 1 н/о н/о -17.2 -18.4 90 -20 -20 1014.3 982.3 -19.9 -13.1
09 19.04 СВ 1 н/о н/о -17.8 -19.3 88 -21 -21 1013.0 981.1
12 19.04 СВ 2 н/о н/о -17.6 -19.1 88 -23 -23 1012.5 980.6 -18.1 -13.1
15 19.04 СВ 3 н/о н/о -20.3 -21.8 88 -28 -28 1012.4 980.4
18 19.04 С 4 н/о н/о -18.0 -19.6 87 -26 -26 1012.7 980.7 -20.3 -17.2
21 19.04 С 5 н/о н/о -16.5 -17.9 89 -25 -25 1013.1 981.1
00 20.04 СВ 4 н/о н/о -18.0 -19.3 90 -26 -26 1014.6 982.5 -20.3 -16.4
03 20.04 С 3 н/о н/о -21.5 -23.1 87 -29 -29 1015.9 983.5
06 20.04 СВ 3 н/о н/о -22.4 -24.3 84 -30 -30 1016.8 984.4 -22.6 -16.4
09 20.04 С 2 н/о н/о -23.7 -25.6 84 -29 -29 1018.0 985.6
12 20.04 СЗ 2 н/о н/о -26.7 -29.0 81 -32 -32 опасность
обморожения
1019.5 986.9 -26.9 -16.4
15 20.04 С 1 н/о н/о -24.4 -26.8 80 -28 -28 1021.1 988.4
18 20.04 н/о н/о -21.5 -23.6 83 1022.2 989.5 -26.9 -21.5
21 20.04 С 2 н/о н/о -20.1 -21.8 86 -26 -26 1023.0 990.3
00 21.04 С 2 н/о н/о -20.4 -22.1 86 -26 -26 1024.1 991.2 -26.9 -19.9
03 21.04 С 1 н/о н/о -22.1 -23.8 86 -25 -25 1024.9 992.0
06 21.04 З 2 н/о н/о -25.7 -27.7 83 -33 -33 опасность
обморожения
1025.4 992.5 -26.9 -19.9
09 21.04 ЮЗ 1 н/о н/о -28.1 -30.5 80 -32 -32 опасность
обморожения
1025.5 992.6

 

Местоположение метеостанции Озеро Робертсон (Нунавут, Канада): широта 65.10 долгота -102.40 высота над уровнем моря 244 м.

В архиве по умолчанию представлена погода на Озере Робертсон за последнюю неделю. Архивные данные за месяц целиком и за предыдущие месяцы, начиная с января 2011 года, Вы можете получить, выбрав интересующий диапазон дат из раскрывающегося списка и нажав кнопку "Ввод!".


*Определитесь, кто Вы:
робот инопланетянин человек

Внимание! Время в таблицах - всемирное. Для получения местного времени необходимо прибавить поправку, которая равна -6 ч.

Смотрите также архив погоды в соседних городах и на ближайших метеорологических станциях:

Погода в Ки Лейк 2 (Саскачеван, Канада) (211 км)
Погода на Реке Ханбери (Северо-Западные территории, Канада) (215 км)
Погода в Глеичене (Альберта, Канада) (292 км)
Погода в Бейкер-Лейке (Нунавут, Канада) (314 км)
Погода в Бейкер Лейк (Нунавут, Канада) (316 км)
Погода на Острове Хат (Нунавут, Канада) (373 км)
Погода в Люпине (Нунавут, Канада) (413 км)
Погода в Саскатуне (Саскачеван, Канада) (413 км)
Погода в Форте Рельянс (Северо-Западные территории, Канада) (422 км)
Погода в Кеймбридж-Бее (Нунавут, Канада) (460 км)

Пояснения к столбцам:

Ветер - указаны скорость ветра в м/с - средняя за 10 мин, порывы в срок и между сроками (в фигурных скобках) и направление, откуда дует ветер: С - северный, СВ - северо-восточный, В - восточный, ЮВ - юго-восточный, Ю - южный, ЮЗ - юго-западный, З - западный, СЗ - северо-западный.
Видимость - горизонтальная дальность видимости в метрах или километрах. При видимости от 1 до 10 км при отсутствии осадков обычно наблюдается дымка, при ухудшении видимости до 1 км и менее - туман. В сухую погоду видимость может ухудшаться дымом, пылью или мглою.
Явления - указаны атмосферные явления, наблюдавшиеся в срок или в последний час перед сроком; фигурными скобками обозначены явления, наблюдавшиеся между сроками (за 1-3 часа до срока); квадратными скобками обозначены град или гололедные отложения с указанием их диаметра в мм.
Облачность - указаны через наклонную черту общая и нижняя облачность в баллах и высота нижней границы облаков в метрах; квадратными скобками обозначены формы облаков: Ci - перистые, Cs - перисто-слоистые, Cc - перисто-кучевые, Ac - высококучевые, As - высокослоистые, Sc - слоисто-кучевые, Ns - слоисто-дождевые, Cu - кучевые, Cb - кучево-дождевые. Подробнее классификацию облаков см. в Атласе облаков (PDF).
T - Температура воздуха - температура, измеренная на высоте 2 м над землей.
Td - Температура точки росы - температура, при понижении до которой содержащийся в воздухе водяной пар достигнет насыщения.
f - Относительная влажность воздуха - влажноcть воздуха, измеренная на высоте 2 м над землей.
Te - Эффективная температура - температура, которую ощущает одетый по сезону человек в тени. Характеристика душности погоды. При расчете учитывается влияние влажности воздуха и скорости ветра на теплоощущения человека.
Tes - Эффективная температура на солнце - температура, которую ощущает человек, с поправкой на солнечный нагрев. Характеристика знойности погоды. Зависит от высоты солнца над горизонтом, облачности и скорости ветра. Ночью, в пасмурную погоду, а также при ветре 12 м/с и более поправка равна нулю.
P - Атмосферное давление - приведенное к уровню моря атмосферное давление.
Po - Атмосферное давление - измеренное на уровне метеостанции атмосферное давление.
Tmin - Минимальная температура - минимум температуры воздуха на высоте 2 м над землей.
Tmax - Максимальная температура - максимум температуры воздуха на высоте 2 м над землей.
R - Количество осадков - Количество выпавших осадков за период времени, мм. При наведении курсора мыши на число - период времени, за который выпало указанное количество осадков.
R24 - Количество осадков - Количество выпавших осадков за 24 часа, мм.
S - Снежный покров - Высота снежного покрова, см. При наведении курсора мыши на число - состояние снежного покрова и степень покрытия местности в баллах.